Location: Tel Aviv
(32.0670°N, 34.7670°E)
Time: 05:24:46
(UTC+03:00)

Vanguard 2 - Pass Details

Date: 29 January 2022
Orbit: 552 x 2935 km, 32.9° (Epoch: 25 May)

Event Time Altitude Azimuth Distance (km) Brightness Sun altitude
Rises 00:10:45 0° 284° (WNW) 5,251 - -75.4°
Reaches altitude 10° 00:13:48 10° 281° (WNW) 4,526 - -75.2°
Maximum altitude 00:27:07 61° 206° (SSW) 2,941 - -74.1°
Drops below altitude 10° 00:44:34 10° 132° (SE) 5,746 - -71.9°
Exits shadow 00:45:31 - 131° (SE) 5,948 12.0 -71.8°
Sets 00:49:02 0° 129° (SE) 6,692 12.4 -71.2°
